Weather History for Grosse Ile, MI

Change the Weather History Date:

Tuesday, May 28, 2013

  Actual Average (KDTW) Record (KDTW)
Temperature  
Mean Temperature 63 °F 64 °F  
Max Temperature 75 °F 74 °F 95 °F (2012)
Min Temperature 51 °F 53 °F 35 °F (1907)
Degree Days  
Heating Degree Days 2 4  
Month to date heating degree days 198  
Since 1 July heating degree days 6092  
Cooling Degree Days 0 2  
Month to date cooling degree days 32  
Year to date cooling degree days 38  
Growing Degree Days 13 (Base 50)    
Moisture  
Dew Point 59 °F    
Average Humidity 87    
Maximum Humidity 94    
Minimum Humidity 73    
Precipitation  
Precipitation 0.09 in 0.11 in 2.02 in (1935)
Month to date precipitation 3.04  
Year to date precipitation 12.20  
Snow  
Snow 0.00 in 0.00 in 0.00 in ()
Month to date snowfall 0.0  
Since 1 July snowfall 42.5  
Snow Depth -    
Sea Level Pressure  
Sea Level Pressure 29.90 in    
Wind  
Wind Speed 5 mph (SSE)    
Max Wind Speed 15 mph    
Max Gust Speed 18 mph    
Visibility 6 miles    
Events Rain    
T = Trace of Precipitation, MM = Missing Value Source: NWS Daily Summary

Daily Weather History Graph

Daily Weather History Graph

Search for Another Location

Airport:

Trip Planner

Search our weather history database for the weather conditions in past years. The results will help you decide how hot, cold, wet, or windy it might be!

Date:

Astronomy

May. 28, 2013 Rise Set
Actual Time 6:01 AM EDT 8:59 PM EDT
Civil Twilight 5:27 AM EDT 9:32 PM EDT
Nautical Twilight 4:45 AM EDT 10:15 PM EDT
Astronomical Twilight 3:56 AM EDT 11:04 PM EDT
Moon No Moon Rise 9:49 AM EDT (5/28)
Length of Visible Light 16h 04m
Length of Day
14h 57m
Waning Gibbous, 83% of the Moon is Illuminated
May 28
Waning Gibbous
May 31
Last Quarter
Jun 8
New
Jun 16
First Quarter
Jun 23
Full

Hourly Weather History & Observations

Time (EDT) Temp. Dew Point Humidity Pressure Visibility Wind Dir Wind Speed Gust Speed Precip Events Conditions
12:14 AM 51.8 °F 50.0 °F 94% 30.01 in 7.0 mi ENE 5.8 mph - N/A   Overcast
12:34 AM 51.8 °F 50.0 °F 94% 30.00 in 5.0 mi East 5.8 mph - N/A   Overcast
12:54 AM 53.6 °F 50.0 °F 88% 29.99 in 5.0 mi ENE 6.9 mph - N/A   Overcast
1:14 AM 53.6 °F 51.8 °F 94% 29.98 in 7.0 mi East 4.6 mph - N/A   Overcast
1:34 AM 53.6 °F 51.8 °F 94% 29.97 in 5.0 mi East 4.6 mph - N/A   Overcast
1:55 AM 55.4 °F 51.8 °F 88% 29.96 in 5.0 mi Calm Calm - N/A   Overcast
2:14 AM 55.4 °F 51.8 °F 88% 29.96 in 7.0 mi East 3.5 mph - N/A   Overcast
2:34 AM 55.4 °F 51.8 °F 88% 29.95 in 5.0 mi Calm Calm - N/A   Overcast
2:55 AM 55.4 °F 51.8 °F 88% 29.94 in 4.0 mi ENE 6.9 mph - N/A Rain Rain
3:14 AM 55.4 °F 51.8 °F 88% 29.94 in 4.0 mi ENE 4.6 mph - N/A Rain Light Rain
3:34 AM 55.4 °F 51.8 °F 88% 29.94 in 4.0 mi ENE 4.6 mph - N/A   Overcast
3:54 AM 55.4 °F 51.8 °F 88% 29.93 in 3.0 mi ENE 4.6 mph - N/A   Overcast
4:14 AM 53.6 °F 51.8 °F 94% 29.93 in 3.0 mi East 3.5 mph - N/A   Overcast
4:34 AM 55.4 °F 51.8 °F 88% 29.93 in 3.0 mi Calm Calm - N/A Rain Light Rain
4:54 AM 55.4 °F 51.8 °F 88% 29.92 in 2.5 mi Calm Calm - N/A   Overcast
5:14 AM 53.6 °F 51.8 °F 94% 29.92 in 1.8 mi NNE 4.6 mph - N/A   Overcast
5:34 AM 55.4 °F 51.8 °F 88% 29.94 in 2.5 mi NNE 3.5 mph - N/A   Overcast
5:54 AM 55.4 °F 51.8 °F 88% 29.94 in 2.5 mi NNE 3.5 mph - N/A   Overcast
6:14 AM 53.6 °F 51.8 °F 94% 29.94 in 2.0 mi Calm Calm - N/A   Overcast
6:34 AM 55.4 °F 51.8 °F 88% 29.95 in 2.5 mi Calm Calm - N/A   Overcast
6:54 AM 55.4 °F 51.8 °F 88% 29.95 in 2.0 mi Calm Calm - N/A   Overcast
7:14 AM 55.4 °F 51.8 °F 88% 29.95 in 2.0 mi NNE 4.6 mph - N/A   Overcast
7:34 AM 55.4 °F 51.8 °F 88% 29.95 in 2.0 mi Calm Calm - N/A   Overcast
7:54 AM 55.4 °F 53.6 °F 94% 29.95 in 2.0 mi Calm Calm - N/A   Mostly Cloudy
8:14 AM 55.4 °F 53.6 °F 94% 29.96 in 2.5 mi Calm Calm - N/A   Light Drizzle
8:34 AM 55.4 °F 53.6 °F 94% 29.96 in 2.0 mi Calm Calm - N/A   Mostly Cloudy
8:54 AM 55.4 °F 53.6 °F 94% 29.96 in 2.0 mi Calm Calm - 0.01 in Rain Rain
9:15 AM 57.2 °F 53.6 °F 88% 29.93 in 1.5 mi Calm Calm - 0.02 in Rain Light Rain
9:34 AM 57.2 °F 55.4 °F 94% 29.95 in 1.8 mi Calm Calm - 0.02 in   Overcast
9:54 AM 57.2 °F 55.4 °F 94% 29.94 in 2.0 mi Calm Calm - 0.02 in   Overcast
10:14 AM 60.8 °F 57.2 °F 88% 29.94 in 2.5 mi SSE 4.6 mph - N/A   Scattered Clouds
10:34 AM 60.8 °F 57.2 °F 88% 29.93 in 5.0 mi SE 9.2 mph - N/A Rain Light Rain
10:54 AM 60.8 °F 57.2 °F 88% 29.93 in 3.0 mi SSE 6.9 mph - 0.01 in Rain Heavy Rain
11:14 AM 62.6 °F 60.8 °F 94% 29.93 in 4.0 mi SE 9.2 mph - N/A   Mostly Cloudy
11:34 AM 64.4 °F 60.8 °F 88% 29.93 in 7.0 mi SE 8.1 mph - N/A   Scattered Clouds
11:54 AM 64.4 °F 60.8 °F 88% 29.93 in 10.0 mi SSE 5.8 mph - N/A   Scattered Clouds
12:14 PM 66.2 °F 62.6 °F 88% 29.91 in 7.0 mi SE 6.9 mph - N/A   Clear
12:34 PM 68.0 °F 62.6 °F 83% 29.90 in 7.0 mi SSE 6.9 mph - N/A   Clear
12:54 PM 68.0 °F 62.6 °F 83% 29.90 in 7.0 mi ESE 6.9 mph - N/A   Clear
1:14 PM 68.0 °F 64.4 °F 88% 29.90 in 10.0 mi SSE 6.9 mph - N/A   Clear
1:34 PM 66.2 °F 62.6 °F 88% 29.89 in 10.0 mi SE 5.8 mph - N/A   Mostly Cloudy
1:54 PM 68.0 °F 62.6 °F 83% 29.88 in 10.0 mi ESE 6.9 mph - N/A   Mostly Cloudy
2:14 PM 69.8 °F 64.4 °F 83% 29.87 in 10.0 mi ESE 5.8 mph - N/A   Mostly Cloudy
2:34 PM 69.8 °F 64.4 °F 83% 29.87 in 10.0 mi SSE 4.6 mph - 0.01 in   Mostly Cloudy
2:54 PM 71.6 °F 64.4 °F 78% 29.86 in 10.0 mi SSE 6.9 mph - 0.01 in   Scattered Clouds
3:14 PM 69.8 °F 64.4 °F 83% 29.85 in 7.0 mi SE 3.5 mph - N/A Rain Light Rain
3:35 PM 69.8 °F 64.4 °F 83% 29.86 in 7.0 mi Calm Calm - N/A Rain Light Rain
3:54 PM 71.6 °F 64.4 °F 78% 29.86 in 10.0 mi South 4.6 mph - N/A   Scattered Clouds
4:14 PM 69.8 °F 64.4 °F 83% 29.86 in 10.0 mi Calm Calm - N/A   Mostly Cloudy
4:34 PM 73.4 °F 66.2 °F 78% 29.85 in 10.0 mi SSW 8.1 mph - N/A   Scattered Clouds
4:54 PM 75.2 °F 68.0 °F 78% 29.85 in 7.0 mi WSW 11.5 mph - 0.03 in   Mostly Cloudy
5:14 PM 73.4 °F 69.8 °F 88% 29.85 in 10.0 mi SW 5.8 mph - 0.01 in   Mostly Cloudy
5:34 PM 75.2 °F 69.8 °F 83% 29.85 in 10.0 mi SW 4.6 mph - 0.01 in   Mostly Cloudy
5:54 PM 75.2 °F 69.8 °F 83% 29.85 in 10.0 mi WSW 3.5 mph - 0.01 in   Mostly Cloudy
6:14 PM 75.2 °F 69.8 °F 83% 29.85 in 10.0 mi SSW 15.0 mph 18.4 mph N/A   Overcast
6:34 PM 73.4 °F 66.2 °F 78% 29.85 in 10.0 mi SSW 9.2 mph - N/A   Mostly Cloudy
6:54 PM 71.6 °F 66.2 °F 83% 29.85 in 10.0 mi South 3.5 mph - N/A Rain Light Rain
7:14 PM 69.8 °F 64.4 °F 83% 29.85 in 10.0 mi South 6.9 mph - N/A   Mostly Cloudy
7:34 PM 66.2 °F 62.6 °F 88% 29.85 in 10.0 mi South 4.6 mph - N/A   Scattered Clouds
7:54 PM 68.0 °F 64.4 °F 88% 29.85 in 10.0 mi South 6.9 mph - N/A   Scattered Clouds
8:15 PM 66.2 °F 62.6 °F 88% 29.85 in 10.0 mi South 8.1 mph - N/A   Clear
8:34 PM 68.0 °F 64.4 °F 88% 29.84 in 10.0 mi South 9.2 mph - N/A   Clear
8:54 PM 66.2 °F 62.6 °F 88% 29.84 in 10.0 mi South 9.2 mph - N/A   Clear
9:15 PM 68.0 °F 64.4 °F 88% 29.84 in 10.0 mi South 6.9 mph - N/A   Scattered Clouds
9:34 PM 66.2 °F 62.6 °F 88% 29.83 in 7.0 mi South 9.2 mph - N/A   Overcast
9:54 PM 66.2 °F 62.6 °F 88% 29.83 in 10.0 mi South 6.9 mph - N/A   Mostly Cloudy
10:14 PM 66.2 °F 62.6 °F 88% 29.83 in 7.0 mi South 8.1 mph - N/A   Scattered Clouds
10:34 PM 66.2 °F 62.6 °F 88% 29.84 in 10.0 mi South 10.4 mph - N/A   Mostly Cloudy
10:54 PM 68.0 °F 62.6 °F 83% 29.85 in 10.0 mi South 10.4 mph - N/A   Scattered Clouds
11:14 PM 69.8 °F 64.4 °F 83% 29.84 in 10.0 mi South 10.4 mph - N/A   Mostly Cloudy
11:34 PM 71.6 °F 64.4 °F 78% 29.84 in 10.0 mi SSW 13.8 mph - N/A   Mostly Cloudy
11:54 PM 73.4 °F 64.4 °F 73% 29.84 in 10.0 mi SSW 13.8 mph - N/A   Scattered Clouds